Other Surface Observations
Issued by NWS Charleston, SC

Home | Current Version | Previous Version | Text Only | Print | Product List | Glossary On
Versions: 1 2 3 4 5 6 7 8 9 10 11 12 13 14 15 16 17 18 19 20 21 22 23 24 25 26 27 28 29 30 31 32 33 34 35 36 37 38 39 40 41 42 43 44 45 46 47 48 49 50
000
SXUS52 KCHS 291126
OSOCHS

MARINE OBSERVATIONS
NATIONAL WEATHER SERVICE CHARLESTON SC
700 AM EDT SUN MAR 29 2015

...DOWNTOWN CHARLESTON AND HARBOR...

CITY           SKY/WX    TMP DP  RH WIND       PRES   REMARKS
WATERFRONT PRK   N/A     39 N/A N/A N17         N/A  WCI  30
FORT JOHNSON   NOT AVBL

...LAKE MOULTRIE...

CITY           SKY/WX    TMP DP  RH WIND       PRES   REMARKS
PINOPOLIS        N/A     39  25  56 NE15      30.28R WCI  31

...LAKE AND SUPPLEMENTAL COASTAL OBSERVATIONS...

STATION/POSITION TIME  TEMP    WIND        PRES    WAVE   SWELL
                       AIR SEA DIR/SP/G            HT/PER HT/PER/DIR
                 (UTC) (F)     (DEG/KT/KT) (MB)    (FT/S) (FT/S/D)
FORT PULASKI     NOT AVBL
SAPELO ISLAND    1100   42     350/  9     1026.0R
UPR LAKE MARION  NOT AVBL
WINYAH BAY       1045   36      20/  5     1027.0R
LAKE MURRAY      1100   34      50/  2/  5 1028.4R
ACE BASIN NERRS  NOT AVBL


...C-MAN AND BUOY OBSERVATIONS...

STATION/POSITION TIME  TEMP    WIND        PRES    WAVE   SWELL
                       AIR SEA DIR/SP/G            HT/PER HT/PER/DIR
                 (UTC) (F)     (DEG/KT/KT) (MB)    (FT/S) (FT/S/D)
BUOY 41004       1050   48 68   20/ 21/ 25 1026.0R   6/ 6   2/ 9
BUOY 41008       1050   51 60   10/ 14/ 17 1025.8R   3/ 4   2/ 50/10
FOLLY BEACH CMAN 1100   40      20/ 18/ 23 1028.4R
CAPERS NS BUOY   NOT AVBL
FRIPP NS BUOY    1000   47      40/ 23/ 27 1025.1R
5E ST. MARYS GA  1021      60                N/A     3/ 4


STATION/POSITION TIME  TEMP    WIND        PRES    WAVE   SWELL
                       AIR SEA DIR/SP/G            HT/PER HT/PER/DIR
                 (UTC) (F)     (DEG/KT/KT) (MB)    (FT/S) (FT/S/D)
FRYING PAN BUOY  1050   44 64   10/ 19/ 25 1027.1R   6/ 6   2/100/10
BUOY 41025       NOT AVBL
CAPE LOOKOUT NC  1100   34     340/ 16/ 20 1027.3R
BUOY 41002       1050   56 68  330/ 19/ 23 1022.5R   8/ 7
BUOY 41010       1020   65 76  310/ 14/ 19 1022.5R
ST AUGUSTINE FL  1100   46 59  310/  7/  8 1026.7R

$$



USA.gov is the U.S. government's official web portal to all federal, state and local government web resources and services.